User: anonymous   Login
Location: Lane
(33.5226°N, 79.8788°W)
Time: 16:07:01
(UTC+00:00)
Language:

Transit 2A Rocket - Orbit

View from above orbital plane
View from above orbital plane
View from above satellite
View from above satellite

Ground track
Ground track

The orbit data is extracted from the following two-line orbital elements,

1    47U 60007C   22268.94068797  .00000258  00000-0  83024-4 0  9990
2    47  66.6647  94.0232 0220488  54.5394 307.6070 14.42424214254880
Epoch (UTC): 25 September 2022 22:34:35
Eccentricity: 0.0220488
inclination: 66.6647°
perigee height: 593 km
apogee height: 907 km
right ascension of ascending node: 94.0232°
argument of perigee: 54.5394°
revolutions per day: 14.42424214
mean anomaly at epoch: 307.6070°
orbit number at epoch: 25488

The dashed part of the orbit path shows where the satellite is in the earth's shadow,  

DLR